Powrót do katalogu

STARLINK-31857

AktywnyŁącznośćVLEO
NORAD 59843·PAYLOAD·🇺🇸 United States

Wystrzelony May 23, 2024 z Cape Canaveral Space Force Station

Loading…

Następne Przeloty (najbliższe 24 godziny)

TLE

ŚwieżeSource: CelesTrak SupGP

Epoka: Sep 14, 2026, 21:00 UTC

1 59843C 24097J   26257.87548611 -.00001233  00000+0 -44639-4 0  2570
2 59843  43.0033 285.5783 0001776 273.5296 114.7374 15.27580876    14

Śledź STARLINK-31857 w czasie rzeczywistym z AllMySat

Download on the App Store